| time (UTC) | temp C | wind direction | speed KPH | gust KPH | rain 1hr cm | rain 24hr cm | rain mn cm | humidity % | barometer mb |
| 20260505041746 | 10 | 68 | 0.0 | 0.0 | 0.00 | 0.00 | 0.00 | 95 | 998.4 |
| 20260505041243 | 10 | 68 | 0.0 | 0.0 | 0.00 | 0.00 | 0.00 | 96 | 998.5 |
| 20260505040730 | 10 | 68 | 0.0 | 0.0 | 0.00 | 0.00 | 0.00 | 96 | 998.7 |
| 20260505040229 | 10 | 68 | 0.0 | 0.0 | 0.00 | 0.00 | 0.00 | 95 | 998.6 |
| 20260505035801 | 10 | 68 | 0.0 | 0.0 | 0.00 | 0.00 | 0.00 | 95 | 998.5 |
| 20260505035229 | 11 | 68 | 0.0 | 0.0 | 0.00 | 0.00 | 0.00 | 95 | 998.6 |
| 20260505034728 | 11 | 68 | 0.0 | 0.0 | 0.00 | 0.00 | 0.00 | 95 | 998.6 |
| 20260505034226 | 11 | 68 | 0.0 | 0.0 | 0.00 | 0.00 | 0.00 | 95 | 998.7 |
| 20260505033723 | 11 | 68 | 0.0 | 0.0 | 0.00 | 0.00 | 0.00 | 95 | 998.9 |
| 20260505033220 | 11 | 68 | 0.0 | 0.0 | 0.00 | 0.00 | 0.00 | 94 | 999.0 |
| 20260505032717 | 11 | 68 | 0.0 | 0.0 | 0.00 | 0.00 | 0.00 | 94 | 998.8 |
| 20260505031711 | 11 | 68 | 0.0 | 0.0 | 0.00 | 0.00 | 0.00 | 94 | 998.9 |
| 20260505031209 | 10 | 68 | 0.0 | 0.0 | 0.00 | 0.00 | 0.00 | 94 | 998.6 |
| 20260505030708 | 11 | 68 | 0.0 | 0.0 | 0.00 | 0.00 | 0.00 | 93 | 998.9 |
| 20260505030208 | 11 | 68 | 0.0 | 0.0 | 0.00 | 0.00 | 0.00 | 93 | 998.7 |
| 20260505025708 | 11 | 68 | 0.0 | 0.0 | 0.00 | 0.00 | 0.00 | 93 | 998.7 |
| 20260505025208 | 11 | 68 | 0.0 | 0.0 | 0.00 | 0.00 | 0.00 | 92 | 998.8 |
| 20260505024708 | 11 | 68 | 0.0 | 0.0 | 0.00 | 0.00 | 0.00 | 93 | 998.5 |
| 20260505024209 | 11 | 68 | 0.0 | 0.0 | 0.00 | 0.00 | 0.00 | 92 | 998.5 |
| 20260505023708 | 11 | 68 | 0.0 | 0.0 | 0.00 | 0.00 | 0.00 | 92 | 998.6 |
| 20260505023208 | 11 | 68 | 0.0 | 0.0 | 0.00 | 0.00 | 0.00 | 92 | 998.3 |
| 20260505022707 | 11 | 68 | 0.0 | 0.0 | 0.00 | 0.00 | 0.00 | 92 | 998.3 |
| 20260505022223 | 11 | 68 | 0.0 | 0.0 | 0.00 | 0.00 | 0.00 | 92 | 998.3 |
| 20260505021708 | 11 | 68 | 0.0 | 0.0 | 0.00 | 0.00 | 0.00 | 92 | 998.3 |
| 20260505021214 | 11 | 68 | 0.0 | 0.0 | 0.00 | 0.00 | 0.00 | 91 | 998.3 |
| 20260505015708 | 12 | 68 | 0.0 | 0.0 | 0.00 | 0.00 | 0.00 | 91 | 998.0 |
| 20260505015211 | 12 | 68 | 0.0 | 0.0 | 0.00 | 0.00 | 0.00 | 90 | 998.1 |
| 20260505014212 | 12 | 68 | 0.0 | 0.0 | 0.00 | 0.00 | 0.00 | 89 | 998.0 |
| 20260505013708 | 12 | 68 | 0.0 | 0.0 | 0.00 | 0.00 | 0.00 | 89 | 997.9 |
| 20260505012711 | 12 | 68 | 0.0 | 0.0 | 0.00 | 0.00 | 0.00 | 88 | 997.6 |
| 20260505012212 | 13 | 68 | 0.0 | 0.0 | 0.00 | 0.00 | 0.00 | 88 | 997.8 |
| 20260505011708 | 13 | 68 | 0.0 | 0.0 | 0.00 | 0.00 | 0.00 | 87 | 997.9 |
| 20260505011213 | 13 | 68 | 0.0 | 0.0 | 0.00 | 0.00 | 0.00 | 86 | 997.9 |
| 20260505010708 | 13 | 68 | 0.0 | 0.0 | 0.00 | 0.00 | 0.00 | 86 | 997.7 |
| 20260505010210 | 13 | 90 | 0.0 | 0.0 | 0.00 | 0.00 | 0.00 | 86 | 997.6 |
| 20260505005708 | 13 | 90 | 0.0 | 0.0 | 0.00 | 0.00 | 0.00 | 86 | 997.7 |
| 20260505004703 | 13 | 90 | 0.0 | 0.0 | 0.00 | 0.00 | 0.00 | 86 | 997.4 |
| 20260505004200 | 13 | 68 | 0.0 | 0.0 | 0.00 | 0.00 | 0.00 | 87 | 997.3 |
| 20260505003657 | 13 | 23 | 0.0 | 0.0 | 0.00 | 0.00 | 0.00 | 85 | 997.3 |
| 20260505003156 | 13 | 23 | 0.0 | 0.0 | 0.00 | 0.00 | 0.00 | 84 | 997.3 |
| 20260505002652 | 13 | 23 | 0.0 | 0.0 | 0.00 | 0.00 | 0.00 | 84 | 997.0 |
| 20260505002151 | 13 | 23 | 0.0 | 0.0 | 0.00 | 0.00 | 0.00 | 84 | 997.2 |
| 20260505001646 | 13 | 45 | 0.0 | 0.0 | 0.00 | 0.00 | 0.00 | 84 | 996.9 |
| 20260505001144 | 13 | 45 | 0.0 | 0.0 | 0.00 | 0.00 | 0.00 | 85 | 997.0 |
| 20260505000640 | 13 | 45 | 0.0 | 0.0 | 0.00 | 0.00 | 0.00 | 85 | 996.9 |
| 20260505000138 | 13 | 45 | 0.0 | 0.0 | 0.00 | 0.00 | 0.00 | 84 | 997.1 |
| 20260504235636 | 13 | 45 | 0.0 | 0.0 | 0.00 | 0.00 | 0.00 | 84 | 997.0 |
| 20260504235136 | 13 | 45 | 0.0 | 0.0 | 0.00 | 0.00 | 0.00 | 83 | 996.9 |
| 20260504234637 | 13 | 45 | 0.0 | 0.0 | 0.00 | 0.00 | 0.00 | 83 | 996.8 |
| 20260504234140 | 14 | 45 | 0.0 | 0.0 | 0.00 | 0.00 | 0.00 | 82 | 997.0 |
| 20260504233636 | 14 | 45 | 0.0 | 0.0 | 0.00 | 0.00 | 0.00 | 82 | 996.9 |
| 20260504233136 | 14 | 45 | 0.0 | 0.0 | 0.00 | 0.00 | 0.00 | 82 | 997.1 |
| 20260504232636 | 14 | 45 | 0.0 | 0.0 | 0.00 | 0.00 | 0.00 | 81 | 996.8 |
| 20260504232136 | 15 | 45 | 0.0 | 0.0 | 0.00 | 0.00 | 0.00 | 80 | 996.9 |
| 20260504231636 | 15 | 45 | 0.0 | 0.0 | 0.00 | 0.00 | 0.00 | 79 | 996.9 |
| 20260504230636 | 15 | 45 | 0.0 | 0.0 | 0.00 | 0.00 | 0.00 | 78 | 996.7 |
| 20260504230137 | 15 | 45 | 0.0 | 0.0 | 0.00 | 0.00 | 0.00 | 79 | 996.8 |
| 20260504225636 | 15 | 45 | 0.0 | 0.0 | 0.00 | 0.00 | 0.00 | 79 | 996.7 |
| 20260504224636 | 15 | 45 | 0.0 | 0.0 | 0.00 | 0.00 | 0.00 | 78 | 996.6 |
| 20260504224136 | 15 | 45 | 0.0 | 0.0 | 0.00 | 0.00 | 0.00 | 78 | 996.7 |
| 20260504223636 | 15 | 45 | 0.0 | 0.0 | 0.00 | 0.00 | 0.00 | 79 | 996.6 |
| 20260504222636 | 15 | 45 | 0.0 | 0.0 | 0.00 | 0.00 | 0.00 | 77 | 996.3 |
| 20260504222137 | 15 | 45 | 0.0 | 0.0 | 0.00 | 0.00 | 0.00 | 76 | 996.1 |
| 20260504221636 | 15 | 45 | 0.0 | 0.0 | 0.00 | 0.00 | 0.00 | 76 | 996.1 |
| 20260504221136 | 15 | 45 | 0.0 | 0.0 | 0.00 | 0.00 | 0.00 | 75 | 996.1 |
| 20260504220636 | 16 | 45 | 0.0 | 0.0 | 0.00 | 0.00 | 0.00 | 73 | 996.1 |
| 20260504215636 | 16 | 45 | 0.0 | 0.0 | 0.00 | 0.00 | 0.00 | 72 | 996.0 |
| 20260504215136 | 17 | 45 | 0.0 | 0.0 | 0.00 | 0.00 | 0.00 | 71 | 995.8 |
| 20260504214636 | 17 | 45 | 0.0 | 0.0 | 0.00 | 0.00 | 0.00 | 70 | 995.6 |
| 20260504214137 | 17 | 45 | 0.0 | 0.0 | 0.00 | 0.00 | 0.00 | 68 | 995.7 |
| 20260504212636 | 20 | 45 | 0.0 | 0.0 | 0.00 | 0.00 | 0.00 | 64 | 995.7 |
| 20260504211636 | 21 | 45 | 0.0 | 0.0 | 0.00 | 0.00 | 0.00 | 61 | 995.7 |
| 20260504211136 | 21 | 45 | 0.0 | 0.0 | 0.00 | 0.00 | 0.00 | 59 | 995.5 |
| 20260504210636 | 21 | 45 | 0.0 | 0.0 | 0.00 | 0.00 | 0.00 | 58 | 995.7 |
| 20260504210136 | 22 | 45 | 0.0 | 0.0 | 0.00 | 0.00 | 0.00 | 57 | 995.7 |
| 20260504205136 | 22 | 23 | 0.0 | 0.0 | 0.00 | 0.00 | 0.00 | 55 | 995.6 |
| 20260504204636 | 23 | 0 | 0.0 | 0.0 | 0.00 | 0.00 | 0.00 | 54 | 995.8 |
| 20260504204136 | 23 | 0 | 0.0 | 0.0 | 0.00 | 0.00 | 0.00 | 53 | 995.9 |
| 20260504203635 | 23 | 23 | 0.0 | 0.0 | 0.00 | 0.00 | 0.00 | 52 | 995.7 |
| 20260504203136 | 23 | 0 | 0.0 | 0.0 | 0.00 | 0.00 | 0.00 | 53 | 995.4 |
| 20260504202636 | 23 | 23 | 0.0 | 0.0 | 0.00 | 0.00 | 0.00 | 52 | 995.6 |
| 20260504202137 | 23 | 0 | 0.0 | 0.0 | 0.00 | 0.00 | 0.00 | 51 | 995.7 |
| 20260504201636 | 24 | 338 | 0.0 | 0.0 | 0.00 | 0.00 | 0.00 | 51 | 995.7 |
| 20260504201137 | 24 | 23 | 0.0 | 0.0 | 0.00 | 0.00 | 0.00 | 50 | 995.6 |
| 20260504200632 | 24 | 23 | 0.0 | 0.0 | 0.00 | 0.00 | 0.00 | 50 | 995.8 |
| 20260504200132 | 24 | 68 | 0.0 | 0.0 | 0.00 | 0.00 | 0.00 | 50 | 995.7 |
| 20260504195632 | 24 | 45 | 0.0 | 0.0 | 0.00 | 0.00 | 0.00 | 50 | 995.7 |
| 20260504195132 | 24 | 45 | 0.0 | 0.0 | 0.00 | 0.00 | 0.00 | 50 | 995.6 |
| 20260504194633 | 24 | 338 | 0.0 | 0.0 | 0.00 | 0.00 | 0.00 | 49 | 995.7 |
| 20260504194133 | 24 | 45 | 0.0 | 0.0 | 0.00 | 0.00 | 0.00 | 49 | 995.8 |
| 20260504193632 | 24 | 0 | 0.0 | 0.0 | 0.00 | 0.00 | 0.00 | 49 | 995.9 |
| 20260504193132 | 25 | 0 | 0.0 | 0.0 | 0.00 | 0.00 | 0.00 | 48 | 995.8 |
| 20260504192632 | 24 | 23 | 0.0 | 0.0 | 0.00 | 0.00 | 0.00 | 49 | 995.7 |
| 20260504192133 | 25 | 45 | 0.0 | 0.0 | 0.00 | 0.00 | 0.00 | 48 | 995.9 |
| 20260504191632 | 25 | 315 | 0.0 | 0.0 | 0.00 | 0.00 | 0.00 | 48 | 995.9 |
| 20260504191133 | 25 | 45 | 0.0 | 0.0 | 0.00 | 0.00 | 0.00 | 47 | 995.8 |
| 20260504190632 | 25 | 0 | 0.0 | 0.0 | 0.00 | 0.00 | 0.00 | 48 | 996.0 |
| 20260504190133 | 25 | 68 | 0.0 | 0.0 | 0.00 | 0.00 | 0.00 | 47 | 996.0 |
| 20260504185132 | 24 | 68 | 0.0 | 0.0 | 0.00 | 0.00 | 0.00 | 47 | 996.3 |
| 20260504184632 | 25 | 23 | 0.0 | 0.0 | 0.00 | 0.00 | 0.00 | 47 | 996.1 |
| 20260504184132 | 25 | 338 | 0.0 | 0.0 | 0.00 | 0.00 | 0.00 | 47 | 996.2 |
| 20260504183632 | 25 | 23 | 0.0 | 0.0 | 0.00 | 0.00 | 0.00 | 47 | 996.4 |
| 20260504183129 | 25 | 0 | 0.0 | 0.0 | 0.00 | 0.00 | 0.00 | 46 | 996.4 |
| 20260504182627 | 25 | 23 | 0.0 | 0.0 | 0.00 | 0.00 | 0.00 | 46 | 996.5 |
| 20260504182123 | 25 | 315 | 0.0 | 0.0 | 0.00 | 0.00 | 0.00 | 46 | 996.6 |
| 20260504181620 | 25 | 23 | 0.0 | 0.0 | 0.00 | 0.00 | 0.00 | 46 | 996.4 |
| 20260504181117 | 25 | 45 | 0.0 | 0.0 | 0.00 | 0.00 | 0.00 | 45 | 996.5 |
| 20260504180605 | 25 | 23 | 0.0 | 0.0 | 0.00 | 0.00 | 0.00 | 45 | 996.7 |
| 20260504180105 | 24 | 0 | 0.0 | 0.0 | 0.00 | 0.00 | 0.00 | 46 | 996.9 |
| 20260504175605 | 24 | 45 | 0.0 | 0.0 | 0.00 | 0.00 | 0.00 | 46 | 997.0 |
| 20260504175104 | 25 | 45 | 0.0 | 0.0 | 0.00 | 0.00 | 0.00 | 45 | 997.0 |
| 20260504174604 | 24 | 45 | 0.0 | 0.0 | 0.00 | 0.00 | 0.00 | 46 | 997.1 |
| 20260504174104 | 24 | 68 | 0.0 | 0.0 | 0.00 | 0.00 | 0.00 | 45 | 997.0 |
| 20260504173605 | 25 | 0 | 0.0 | 0.0 | 0.00 | 0.00 | 0.00 | 45 | 997.1 |
| 20260504173105 | 24 | 23 | 0.0 | 0.0 | 0.00 | 0.00 | 0.00 | 45 | 997.3 |
| 20260504172604 | 24 | 23 | 0.0 | 0.0 | 0.00 | 0.00 | 0.00 | 44 | 997.6 |
| 20260504172104 | 24 | 45 | 0.0 | 0.0 | 0.00 | 0.00 | 0.00 | 45 | 997.6 |
| 20260504171604 | 24 | 45 | 0.0 | 0.0 | 0.00 | 0.00 | 0.00 | 45 | 997.4 |
| 20260504171105 | 23 | 23 | 0.0 | 0.0 | 0.00 | 0.00 | 0.00 | 45 | 997.6 |
| 20260504170604 | 23 | 0 | 0.0 | 0.0 | 0.00 | 0.00 | 0.00 | 45 | 997.9 |
| 20260504170104 | 24 | 45 | 0.0 | 0.0 | 0.00 | 0.00 | 0.00 | 45 | 997.8 |
| 20260504160108 | 22 | 0 | 0.0 | 0.0 | 0.00 | 0.00 | 0.00 | 47 | 998.9 |
| 20260504150607 | 20 | 23 | 0.0 | 0.0 | 0.00 | 0.00 | 0.00 | 50 | 999.7 |
| 20260504150108 | 20 | 45 | 0.0 | 0.0 | 0.00 | 0.00 | 0.00 | 51 | 999.7 |
| 20260504141108 | 18 | 23 | 0.0 | 0.0 | 0.00 | 0.00 | 0.00 | 59 | 1000.4 |
| 20260504140608 | 17 | 23 | 0.0 | 0.0 | 0.00 | 0.00 | 0.00 | 59 | 1000.6 |
| 20260504140107 | 17 | 0 | 0.0 | 0.0 | 0.00 | 0.00 | 0.00 | 61 | 1000.7 |
| 20260504130603 | 13 | 45 | 0.0 | 0.0 | 0.00 | 0.00 | 0.00 | 71 | 1000.5 |
| 20260504130105 | 13 | 0 | 0.0 | 0.0 | 0.00 | 0.00 | 0.00 | 72 | 1000.3 |
| 20260504120104 | 8 | 45 | 0.0 | 0.0 | 0.00 | 0.00 | 0.00 | 86 | 1000.4 |
| 20260504110604 | 3 | 68 | 0.0 | 0.0 | 0.00 | 0.00 | 0.00 | 93 | 999.9 |
| 20260504110104 | 3 | 68 | 0.0 | 0.0 | 0.00 | 0.00 | 0.00 | 94 | 999.7 |
| 20260504100546 | 3 | 68 | 0.0 | 0.0 | 0.00 | 0.00 | 0.00 | 94 | 1000.2 |
| 20260504081536 | 4 | 68 | 0.0 | 0.0 | 0.00 | 0.00 | 0.00 | 93 | 999.8 |
| 20260504081036 | 4 | 68 | 0.0 | 0.0 | 0.00 | 0.00 | 0.00 | 93 | 999.7 |
| 20260504080533 | 3 | 68 | 0.0 | 0.0 | 0.00 | 0.00 | 0.00 | 93 | 999.5 |
| 20260504050505 | 5 | 45 | 0.0 | 0.0 | 0.00 | 0.00 | 0.00 | 87 | 1001.0 |